Location: Chabot Space and Science Center
(37.8191°N, 122.1819°W)
Time: 15:21:50
(UTC-08:00)

ISS - Pass Details

Date: 03 December 2021
Orbit: 413 x 422 km, 51.6° (Epoch: 28 January)

Event Time Altitude Azimuth Distance (km) Brightness Sun altitude
Rises 17:18:45 0° 320° (NW) 2,385 0.3 -6.0°
Reaches altitude 10° 17:22:13 10° 357° (N) 1,514 -1.1 -6.6°
Maximum altitude 17:23:18 11° 16° (NNE) 1,442 -1.4 -6.8°
Drops below altitude 10° 17:24:24 10° 35° (NE) 1,511 -1.4 -7.0°
Enters shadow 17:25:15 - 47° (NE) 1,652 -1.3 -7.2°
